This demonstration page uses our WeatherBlox Daily Observations layout. Learn more.

41.55636, -103.73856

Hourly Observations for March 7, 2019

Temp ( °F °C ) Dew Point ( °F °C ) Humidity (%) Winds ( mph kmh ) Pressure ( in mb ) Visibility ( mi km ) Precip ( " mm )
12:40 am 00:40 Cloudy with Mist and Fog 19 -7.2 17 -8.3 92 92 ESE 14 22 30.15 1021 4 6.437376 0 0
12:53 am 00:53 Cloudy with Mist and Fog 19 -7.2 17 -8.3 92 92 ESE 13 20 30.03 1017 4 6.437376 0 0
1:02 am 01:02 Cloudy with Mist and Fog 19 -7 18 -8 93 93 SE 16 26 30.15 1021 4 6.437376 0 0
1:15 am 01:15 Cloudy with Mist and Fog 19 -7.2 17 -8.3 92 92 SE 15 24 30.15 1021 4 6.437376 0 0
1:28 am 01:28 Cloudy with Mist and Fog 19 -7 18 -8 93 93 ESE 15 24 30.15 1021 4 6.437376 0 0
1:36 am 01:36 Cloudy with Mist and Fog 19 -7 18 -8 93 93 SE 13 20 30.15 1021 4 6.437376 0 0
1:53 am 01:53 Cloudy with Mist and Fog 19 -7.2 18 -7.8 96 96 ESE 15 24 30 1016 4 6.437376 0 0
2:51 am 02:51 Cloudy with Mist and Fog 19 -7 18 -8 93 93 ESE 17 28 30.12 1020 4 6.437376 0 0
2:53 am 02:53 Cloudy with Mist and Fog 19 -7.2 18 -7.8 96 96 ESE 18 30 29.97 1015 4 6.437376 0 0
3:53 am 03:53 Cloudy with Mist and Fog 18 -7.8 18 -7.8 100 100 ESE 16 26 29.97 1015 3 4.828032 0 0
4:21 am 04:21 Cloudy with Mist and Fog 19 -7.2 18 -7.8 96 96 ESE 17 28 30.12 1020 2.5 4.02336 0 0
4:51 am 04:51 Cloudy with Mist and Fog 19 -7 18 -8 93 93 E 16 26 30.12 1020 3 4.828032 0 0
4:53 am 04:53 Cloudy with Mist and Fog 19 -7.2 18 -7.8 96 96 E 15 24 29.97 1015 3 4.828032 0 0
5:53 am 05:53 Cloudy with Mist and Fog 19 -7.2 18 -7.8 96 96 ESE 18 30 30 1016 3 4.828032 0 0
6:00 am 06:00 Cloudy with Mist and Fog 19 -7 18 -8 93 93 E 17 28 30.12 1020 2.5 4.02336 0 0
6:38 am 06:38 Cloudy with Mist and Fog 19 -7 18 -8 93 93 E 16 26 30.12 1020 1.75 2.816352 0 0
6:53 am 06:53 Cloudy with Mist and Fog 19 -7.2 19 -7.2 100 100 ESE 15 24 30 1016 1.5 2.414016 0 0
7:53 am 07:53 Cloudy with Mist and Fog 19 -7.2 19 -7.2 100 100 E 15 24 30.03 1017 1 1.609344 0 0
8:53 am 08:53 Cloudy with Mist and Fog 20 -6.7 20 -6.7 100 100 ESE 16 26 30.03 1017 1.75 2.816352 0 0
9:53 am 09:53 Cloudy with Mist and Fog 21 -6.1 21 -6.1 100 100 ESE 15 24 30 1016 1.5 2.414016 0 0
10:09 am 10:09 Cloudy with Mist and Fog 22 -5.6 21 -6.1 96 96 ESE 15 24 30.09 1019 2 3.218688 0 0
10:29 am 10:29 Cloudy with Mist and Fog 23 -5 21 -6.1 92 92 ESE 13 20 30.09 1019 3 4.828032 0 0
10:38 am 10:38 Cloudy with Mist and Fog 23 -5 21 -6 93 93 ESE 15 24 30.09 1019 3 4.828032 0 0
10:53 am 10:53 Cloudy with Mist and Fog 23 -5 22 -5.6 96 96 ESE 15 24 29.97 1015 4 6.437376 0 0
11:53 am 11:53 Cloudy with Mist and Fog 25 -3.9 24 -4.4 96 96 ESE 15 24 29.97 1015 5 8.04672 0 0
12:14 pm 12:14 Cloudy with Mist and Fog 27 -3 25 -4 93 93 ESE 15 24 30.03 1017 5 8.04672 0 0
12:53 pm 12:53 Cloudy with Mist and Fog 28 -2.2 25 -3.9 88 88 ESE 15 24 29.91 1013 6 9.656064 0 0
1:53 pm 13:53 Cloudy with Mist and Fog 29 -1.7 27 -2.8 92 92 ESE 13 20 29.91 1013 6 9.656064 0 0
2:35 pm 14:35 Mostly Cloudy with Mist and Fog 30 -1.1 27 -2.8 88 88 E 9 15 29.91 1013 6 9.656064 0 0
2:45 pm 14:45 Partly Cloudy 33 0.6 28 -2.2 82 82 SSE 10 17 29.88 1012 7 11.265408 0 0
2:53 pm 14:53 Mostly Sunny 33 0.6 29 -1.7 85 85 SSE 10 17 29.88 1012 8 12.874752 0 0
3:53 pm 15:53 Cloudy 31 -0.6 28 -2.2 89 89 E 8 13 29.88 1012 7 11.265408 0 0
4:53 pm 16:53 Partly Cloudy with Mist and Fog 30 -1.1 28 -2.2 92 92 E 8 13 29.88 1012 6 9.656064 0 0
5:53 pm 17:53 Clear with Mist and Fog 28 -2.2 26 -3.3 92 92 E 8 13 29.88 1012 5 8.04672 0 0
6:53 pm 18:53 Clear with Mist and Fog 24 -4.4 23 -5 96 96 ESE 7 11 29.91 1013 6 9.656064 0 0
7:53 pm 19:53 Clear with Mist and Fog 20 -6.7 20 -6.7 100 100 ESE 5 7 29.94 1014 5 8.04672 0 0
8:53 pm 20:53 Clear with Mist and Fog 18 -7.8 18 -7.8 100 100 E 3 6 29.94 1014 4 6.437376 0 0
9:28 pm 21:28 Clear with Mist and Fog 18 -8 18 -8 100 100 Calm 30.06 1018 1.75 2.816352 0 0
9:34 pm 21:34 Mostly Cloudy with Freezing Fog 18 -8 16 -9 93 93 NE 3 6 30.06 1018 0.5 0.804672 0 0
9:43 pm 21:43 Mostly Cloudy with Freezing Fog 15 -9.4 15 -9.4 100 100 Calm 30.09 1019 0.25 0.402336 0 0
9:53 pm 21:53 Mostly Cloudy with Freezing Fog 15 -9.4 15 -9.4 100 100 Calm 29.97 1015 0.25 0.402336 0 0
10:53 pm 22:53 Mostly Cloudy with Freezing Fog 13 -10.6 11 -11.7 92 92 N 5 7 29.97 1015 0.25 0.402336 0 0
11:06 pm 23:06 Mostly Cloudy with Freezing Fog 13 -10.6 13 -10.6 100 100 NNE 7 11 30.12 1020 0.25 0.402336 0 0
11:53 pm 23:53 Mostly Cloudy with Freezing Fog 13 -10.6 10 -12.2 88 88 WNW 3 6 29.97 1015 0.25 0.402336 0 0

Powered by AerisWeather